Location: Gibsondale
(40.9931°N, 80.2478°W)
Time: 18:45:56
(UTC+00:00)

Cosmos 1939 Rocket - Pass Details

Date: 29 October 2020
Orbit: 532 x 584 km, 97.4° (Epoch: 24 November)

Event Time Altitude Azimuth Distance (km) Brightness Sun altitude
Rises 23:16:32 0° 158° (SSE) 2,729 6.2 -11.2°
Reaches altitude 10° 23:18:41 10° 155° (SSE) 1,830 5.3 -11.6°
Maximum altitude 23:22:35 60° 75° (ENE) 629 2.8 -12.4°
Drops below altitude 10° 23:26:27 10° 356° (N) 1,816 5.4 -13.1°
Sets 23:28:35 0° 352° (N) 2,706 6.4 -13.5°
